| time (UTC) | temp F | wind direction | speed knots | gust knots | rain 1hr in | rain 24hr in | rain mn in | humidity % | barometer mb |
| 20260906232307 | 59 | 140 | 5.2 | 7.8 | 0.00 | 0.00 | 0.00 | 89 | 1016.5 |
| 20260906231805 | 59 | 144 | 5.2 | 8.7 | 0.00 | 0.00 | 0.00 | 89 | 1016.6 |
| 20260906231305 | 58 | 130 | 5.2 | 8.7 | 0.00 | 0.00 | 0.00 | 89 | 1016.6 |
| 20260906230807 | 58 | 177 | 5.2 | 7.8 | 0.00 | 0.00 | 0.00 | 90 | 1016.7 |
| 20260906230647 | 58 | 147 | 3.5 | 9.6 | 0.00 | 0.00 | 0.00 | 90 | 1016.7 |
| 20260906225805 | 58 | 134 | 5.2 | 9.6 | 0.00 | 0.00 | 0.00 | 90 | 1016.7 |
| 20260906225644 | 58 | 157 | 6.1 | 8.7 | 0.00 | 0.00 | 0.00 | 90 | 1016.7 |
| 20260906224804 | 58 | 157 | 3.5 | 7.8 | 0.00 | 0.00 | 0.00 | 91 | 1016.6 |
| 20260906224640 | 58 | 131 | 4.3 | 7.8 | 0.00 | 0.00 | 0.00 | 90 | 1016.6 |
| 20260906223807 | 58 | 164 | 5.2 | 7.8 | 0.00 | 0.00 | 0.00 | 90 | 1016.7 |
| 20260906223308 | 58 | 133 | 6.1 | 7.8 | 0.00 | 0.00 | 0.00 | 90 | 1016.7 |
| 20260906222804 | 58 | 112 | 5.2 | 7.8 | 0.00 | 0.00 | 0.00 | 91 | 1016.8 |
| 20260906222653 | 58 | 123 | 5.2 | 7.0 | 0.00 | 0.00 | 0.00 | 91 | 1016.7 |
| 20260906221808 | 58 | 169 | 5.2 | 7.0 | 0.00 | 0.00 | 0.00 | 91 | 1016.9 |
| 20260906221307 | 58 | 128 | 5.2 | 7.0 | 0.00 | 0.00 | 0.00 | 91 | 1016.9 |
| 20260906220805 | 58 | 121 | 5.2 | 7.8 | 0.00 | 0.00 | 0.00 | 92 | 1016.9 |
| 20260906220306 | 57 | 152 | 5.2 | 8.7 | 0.00 | 0.00 | 0.00 | 91 | 1017.0 |
| 20260906215804 | 57 | 136 | 5.2 | 8.7 | 0.00 | 0.00 | 0.00 | 91 | 1017.0 |
| 20260906215309 | 57 | 134 | 6.1 | 8.7 | 0.00 | 0.00 | 0.00 | 91 | 1017.0 |
| 20260906214806 | 57 | 119 | 6.1 | 7.0 | 0.00 | 0.00 | 0.00 | 91 | 1016.9 |
| 20260906214313 | 57 | 131 | 2.6 | 5.2 | 0.00 | 0.00 | 0.00 | 91 | 1017.0 |
| 20260906213808 | 57 | 107 | 3.5 | 6.1 | 0.00 | 0.00 | 0.00 | 91 | 1017.1 |
| 20260906213307 | 57 | 104 | 4.3 | 7.0 | 0.00 | 0.00 | 0.00 | 91 | 1017.2 |
| 20260906212803 | 57 | 107 | 3.5 | 7.0 | 0.00 | 0.00 | 0.00 | 91 | 1017.1 |
| 20260906212310 | 57 | 134 | 5.2 | 7.8 | 0.00 | 0.00 | 0.00 | 92 | 1017.2 |
| 20260906211807 | 57 | 134 | 5.2 | 7.8 | 0.00 | 0.00 | 0.00 | 92 | 1017.2 |
| 20260906211408 | 56 | 140 | 5.2 | 9.6 | 0.00 | 0.00 | 0.00 | 93 | 1017.3 |
| 20260906211339 | 57 | 116 | 5.2 | 7.8 | 0.00 | 0.00 | 0.00 | 92 | 1017.3 |
| 20260906210934 | 57 | 144 | 6.1 | 7.8 | 0.00 | 0.00 | 0.00 | 92 | 1017.2 |
| 20260906205802 | 56 | 148 | 5.2 | 9.6 | 0.00 | 0.00 | 0.00 | 93 | 1017.3 |
| 20260906205306 | 56 | 144 | 3.5 | 7.8 | 0.00 | 0.00 | 0.00 | 93 | 1017.2 |
| 20260906205143 | 56 | 126 | 5.2 | 7.8 | 0.00 | 0.00 | 0.00 | 93 | 1017.2 |
| 20260906204308 | 56 | 123 | 5.2 | 8.7 | 0.00 | 0.00 | 0.00 | 93 | 1017.3 |
| 20260906203806 | 56 | 106 | 6.1 | 10.4 | 0.00 | 0.00 | 0.00 | 93 | 1017.3 |
| 20260906203306 | 56 | 150 | 7.0 | 10.4 | 0.00 | 0.00 | 0.00 | 93 | 1017.5 |
| 20260906202807 | 56 | 126 | 7.0 | 9.6 | 0.00 | 0.00 | 0.00 | 94 | 1017.3 |
| 20260906202307 | 55 | 119 | 7.0 | 7.8 | 0.00 | 0.00 | 0.00 | 94 | 1017.3 |
| 20260906201802 | 55 | 136 | 5.2 | 8.7 | 0.00 | 0.00 | 0.00 | 94 | 1017.5 |
| 20260906201305 | 55 | 114 | 4.3 | 8.7 | 0.00 | 0.00 | 0.00 | 94 | 1017.6 |
| 20260906200800 | 55 | 128 | 3.5 | 6.1 | 0.00 | 0.00 | 0.00 | 94 | 1017.5 |
| 20260906200304 | 55 | 109 | 3.5 | 6.1 | 0.00 | 0.00 | 0.00 | 94 | 1017.7 |
| 20260906195801 | 55 | 121 | 3.5 | 6.1 | 0.00 | 0.00 | 0.00 | 94 | 1017.6 |
| 20260906195306 | 54 | 123 | 4.3 | 8.7 | 0.00 | 0.00 | 0.00 | 94 | 1017.7 |
| 20260906195126 | 54 | 128 | 5.2 | 8.7 | 0.00 | 0.00 | 0.00 | 94 | 1017.7 |
| 20260906194303 | 54 | 123 | 4.3 | 7.8 | 0.00 | 0.00 | 0.00 | 94 | 1017.8 |
| 20260906193806 | 54 | 119 | 5.2 | 7.8 | 0.00 | 0.00 | 0.00 | 94 | 1017.8 |
| 20260906193306 | 54 | 122 | 3.5 | 6.1 | 0.00 | 0.00 | 0.00 | 94 | 1017.9 |
| 20260906192811 | 54 | 115 | 3.5 | 7.0 | 0.00 | 0.00 | 0.00 | 94 | 1017.8 |
| 20260906192306 | 54 | 132 | 3.5 | 7.0 | 0.00 | 0.00 | 0.00 | 94 | 1017.8 |
| 20260906191802 | 54 | 101 | 3.5 | 7.0 | 0.00 | 0.00 | 0.00 | 94 | 1017.9 |
| 20260906191305 | 54 | 119 | 3.5 | 7.0 | 0.00 | 0.00 | 0.00 | 94 | 1018.0 |
| 20260906191123 | 53 | 130 | 5.2 | 8.7 | 0.00 | 0.00 | 0.00 | 94 | 1018.1 |
| 20260906190302 | 53 | 121 | 4.3 | 8.7 | 0.00 | 0.00 | 0.00 | 94 | 1018.0 |
| 20260906185801 | 53 | 128 | 6.1 | 7.8 | 0.00 | 0.00 | 0.00 | 94 | 1018.1 |
| 20260906185307 | 53 | 130 | 2.6 | 7.0 | 0.00 | 0.00 | 0.00 | 94 | 1018.0 |
| 20260906184808 | 53 | 121 | 4.3 | 7.0 | 0.00 | 0.00 | 0.00 | 94 | 1018.1 |
| 20260906184308 | 53 | 127 | 2.6 | 5.2 | 0.00 | 0.00 | 0.00 | 94 | 1018.1 |
| 20260906183803 | 53 | 122 | 4.3 | 7.0 | 0.00 | 0.00 | 0.00 | 94 | 1018.2 |
| 20260906183302 | 53 | 123 | 4.3 | 7.0 | 0.00 | 0.00 | 0.00 | 94 | 1018.2 |
| 20260906182801 | 53 | 120 | 3.5 | 7.0 | 0.00 | 0.00 | 0.00 | 94 | 1018.2 |
| 20260906182624 | 53 | 130 | 4.3 | 6.1 | 0.00 | 0.00 | 0.00 | 94 | 1018.2 |
| 20260906181802 | 53 | 131 | 5.2 | 7.0 | 0.00 | 0.00 | 0.00 | 94 | 1018.3 |
| 20260906181504 | 53 | 108 | 4.3 | 7.0 | 0.00 | 0.00 | 0.00 | 94 | 1018.5 |
| 20260906181417 | 53 | 131 | 5.2 | 7.0 | 0.00 | 0.00 | 0.00 | 94 | 1018.3 |
| 20260906180308 | 53 | 108 | 4.3 | 7.0 | 0.00 | 0.00 | 0.00 | 94 | 1018.5 |
| 20260906180137 | 53 | 113 | 3.5 | 6.1 | 0.00 | 0.00 | 0.00 | 94 | 1018.3 |
| 20260906175312 | 52 | 147 | 2.6 | 4.3 | 0.00 | 0.00 | 0.00 | 94 | 1018.3 |
| 20260906174805 | 52 | 115 | 3.5 | 3.5 | 0.00 | 0.00 | 0.00 | 94 | 1018.6 |
| 20260906174657 | 52 | 148 | 3.5 | 4.3 | 0.00 | 0.00 | 0.00 | 94 | 1018.5 |
| 20260906173805 | 52 | 148 | 3.5 | 4.3 | 0.00 | 0.00 | 0.00 | 94 | 1018.5 |
| 20260906173307 | 52 | 140 | 1.7 | 3.5 | 0.00 | 0.00 | 0.00 | 94 | 1018.5 |
| 20260906172805 | 52 | 140 | 1.7 | 3.5 | 0.00 | 0.00 | 0.00 | 94 | 1018.5 |
| 20260906172309 | 52 | 98 | 1.7 | 4.3 | 0.00 | 0.00 | 0.00 | 94 | 1018.5 |
| 20260906171805 | 52 | 109 | 3.5 | 5.2 | 0.00 | 0.00 | 0.00 | 94 | 1018.5 |
| 20260906171307 | 52 | 121 | 2.6 | 5.2 | 0.00 | 0.00 | 0.00 | 94 | 1018.6 |
| 20260906170812 | 52 | 130 | 2.6 | 5.2 | 0.00 | 0.00 | 0.00 | 94 | 1018.6 |
| 20260906170306 | 52 | 114 | 3.5 | 7.0 | 0.00 | 0.00 | 0.00 | 94 | 1018.7 |
| 20260906170047 | 52 | 104 | 2.6 | 6.1 | 0.00 | 0.00 | 0.00 | 94 | 1018.8 |
| 20260906165942 | 52 | 99 | 5.2 | 7.0 | 0.00 | 0.00 | 0.00 | 94 | 1018.8 |
| 20260906164805 | 52 | 123 | 2.6 | 4.3 | 0.00 | 0.00 | 0.00 | 94 | 1018.9 |
| 20260906164306 | 52 | 136 | 1.7 | 4.3 | 0.00 | 0.00 | 0.00 | 94 | 1018.8 |
| 20260906163805 | 52 | 128 | 2.6 | 4.3 | 0.00 | 0.00 | 0.00 | 94 | 1018.8 |
| 20260906163305 | 52 | 146 | 3.5 | 7.0 | 0.00 | 0.00 | 0.00 | 94 | 1018.9 |
| 20260906163156 | 52 | 132 | 3.5 | 7.0 | 0.00 | 0.00 | 0.00 | 94 | 1018.9 |
| 20260906162308 | 52 | 123 | 2.6 | 7.0 | 0.00 | 0.00 | 0.00 | 94 | 1018.9 |
| 20260906161806 | 52 | 137 | 3.5 | 6.1 | 0.00 | 0.00 | 0.00 | 94 | 1018.9 |
| 20260906161305 | 52 | 132 | 2.6 | 4.3 | 0.00 | 0.00 | 0.00 | 94 | 1018.9 |
| 20260906160807 | 51 | 136 | 2.6 | 4.3 | 0.00 | 0.00 | 0.00 | 94 | 1018.9 |
| 20260906160306 | 51 | 140 | 1.7 | 4.3 | 0.00 | 0.00 | 0.00 | 94 | 1018.9 |
| 20260906155803 | 51 | 140 | 1.7 | 2.6 | 0.00 | 0.00 | 0.00 | 94 | 1018.8 |
| 20260906155307 | 51 | 146 | 0.9 | 1.7 | 0.00 | 0.00 | 0.00 | 94 | 1018.7 |
| 20260906155146 | 51 | 155 | 0.9 | 2.6 | 0.00 | 0.00 | 0.00 | 94 | 1018.7 |
| 20260906154305 | 51 | 155 | 0.9 | 2.6 | 0.00 | 0.00 | 0.00 | 94 | 1018.7 |
| 20260906153803 | 51 | 155 | 0.9 | 1.7 | 0.00 | 0.00 | 0.00 | 94 | 1018.7 |
| 20260906153302 | 51 | 155 | 0.0 | 0.9 | 0.00 | 0.00 | 0.00 | 94 | 1018.8 |
| 20260906152802 | 51 | 155 | 0.0 | 1.7 | 0.00 | 0.00 | 0.00 | 94 | 1018.9 |
| 20260906152300 | 51 | 155 | 0.0 | 1.7 | 0.00 | 0.00 | 0.00 | 94 | 1018.8 |
| 20260906151803 | 51 | 155 | 0.9 | 1.7 | 0.00 | 0.00 | 0.00 | 94 | 1018.8 |
| 20260906151303 | 50 | 209 | 0.0 | 0.0 | 0.00 | 0.00 | 0.00 | 94 | 1018.9 |
| 20260906150801 | 50 | 209 | 0.0 | 0.0 | 0.00 | 0.00 | 0.00 | 94 | 1018.7 |
| 20260906150302 | 50 | 209 | 0.0 | 0.0 | 0.00 | 0.00 | 0.00 | 94 | 1018.7 |
| 20260906145803 | 50 | 209 | 0.0 | 0.0 | 0.00 | 0.00 | 0.00 | 94 | 1018.7 |
| 20260906145302 | 50 | 209 | 0.0 | 0.0 | 0.00 | 0.00 | 0.00 | 94 | 1018.7 |
| 20260906144802 | 50 | 209 | 0.0 | 0.0 | 0.00 | 0.00 | 0.00 | 94 | 1018.7 |
| 20260906144301 | 50 | 209 | 0.0 | 0.0 | 0.00 | 0.00 | 0.00 | 94 | 1018.8 |
| 20260906143803 | 50 | 209 | 0.0 | 0.0 | 0.00 | 0.00 | 0.00 | 94 | 1018.9 |
| 20260906143302 | 50 | 209 | 0.0 | 0.0 | 0.00 | 0.00 | 0.00 | 94 | 1019.0 |
| 20260906142802 | 49 | 209 | 0.0 | 1.7 | 0.00 | 0.00 | 0.00 | 94 | 1019.0 |
| 20260906142607 | 49 | 209 | 0.9 | 2.6 | 0.00 | 0.00 | 0.00 | 94 | 1019.1 |
| 20260906142439 | 49 | 209 | 0.9 | 2.6 | 0.00 | 0.00 | 0.00 | 94 | 1019.0 |
| 20260906141301 | 49 | 209 | 0.9 | 1.7 | 0.00 | 0.00 | 0.00 | 94 | 1019.1 |
| 20260906140804 | 49 | 209 | 0.0 | 0.0 | 0.00 | 0.00 | 0.00 | 94 | 1019.2 |
| 20260906140303 | 49 | 209 | 0.0 | 0.0 | 0.00 | 0.00 | 0.00 | 94 | 1019.2 |
| 20260906140152 | 49 | 209 | 0.0 | 2.6 | 0.00 | 0.00 | 0.00 | 94 | 1019.2 |
| 20260906135658 | 49 | 209 | 0.0 | 2.6 | 0.00 | 0.00 | 0.00 | 94 | 1019.2 |
| 20260906135103 | 49 | 174 | 0.0 | 0.0 | 0.00 | 0.00 | 0.00 | 94 | 1019.2 |
| 20260906134939 | 49 | 174 | 0.0 | 0.0 | 0.00 | 0.00 | 0.00 | 94 | 1019.2 |
| 20260906133807 | 49 | 174 | 0.0 | 0.0 | 0.00 | 0.00 | 0.00 | 94 | 1019.2 |
| 20260906133301 | 49 | 174 | 0.0 | 0.0 | 0.00 | 0.00 | 0.00 | 94 | 1019.1 |
| 20260906133157 | 49 | 174 | 0.0 | 1.7 | 0.00 | 0.00 | 0.00 | 94 | 1019.1 |
| 20260906132306 | 49 | 174 | 0.9 | 1.7 | 0.00 | 0.00 | 0.00 | 94 | 1019.2 |
| 20260906131802 | 49 | 174 | 0.0 | 0.9 | 0.00 | 0.00 | 0.00 | 94 | 1019.2 |
| 20260906131659 | 49 | 174 | 0.0 | 2.6 | 0.00 | 0.00 | 0.00 | 94 | 1019.1 |
| 20260906130802 | 49 | 174 | 0.9 | 3.5 | 0.00 | 0.00 | 0.00 | 94 | 1019.2 |
| 20260906130305 | 49 | 165 | 0.9 | 3.5 | 0.00 | 0.00 | 0.00 | 94 | 1019.2 |
| 20260906125802 | 49 | 180 | 2.6 | 3.5 | 0.00 | 0.00 | 0.00 | 94 | 1019.3 |
| 20260906125301 | 50 | 167 | 1.7 | 3.5 | 0.00 | 0.00 | 0.00 | 94 | 1019.3 |
| 20260906124801 | 50 | 203 | 3.5 | 3.5 | 0.00 | 0.00 | 0.00 | 94 | 1019.6 |
| 20260906124302 | 50 | 203 | 3.5 | 4.3 | 0.00 | 0.00 | 0.00 | 94 | 1019.6 |
| 20260906123801 | 50 | 190 | 3.5 | 5.2 | 0.00 | 0.00 | 0.00 | 94 | 1019.7 |
| 20260906123305 | 50 | 188 | 3.5 | 5.2 | 0.00 | 0.00 | 0.00 | 94 | 1019.7 |
| 20260906122801 | 50 | 195 | 3.5 | 5.2 | 0.00 | 0.00 | 0.00 | 94 | 1019.7 |
| 20260906122301 | 50 | 193 | 4.3 | 5.2 | 0.00 | 0.00 | 0.00 | 94 | 1019.9 |
| 20260906121802 | 50 | 194 | 2.6 | 3.5 | 0.00 | 0.00 | 0.00 | 94 | 1020.0 |
| 20260906121302 | 0 | 0.0 | 0.0 | 0.00 | 0.00 | 0.00 | |||
| 20260906120808 | 50 | 169 | 4.3 | 5.2 | 0.00 | 0.00 | 0.00 | 94 | 1020.2 |
| 20260906120302 | 50 | 169 | 4.3 | 5.2 | 0.00 | 0.00 | 0.00 | 94 | 1020.2 |
| 20260906115801 | 50 | 167 | 3.5 | 5.2 | 0.00 | 0.00 | 0.00 | 94 | 1020.1 |
| 20260906115305 | 50 | 166 | 2.6 | 6.1 | 0.00 | 0.00 | 0.00 | 94 | 1020.1 |
| 20260906114803 | 50 | 173 | 4.3 | 6.1 | 0.00 | 0.00 | 0.00 | 94 | 1020.1 |
| 20260906114652 | 0 | 0.0 | 0.0 | 0.00 | 0.00 | 0.00 | |||
| 20260906113801 | 50 | 173 | 3.5 | 4.3 | 0.00 | 0.00 | 0.00 | 94 | 1020.3 |
| 20260906113303 | 50 | 173 | 3.5 | 5.2 | 0.00 | 0.00 | 0.00 | 94 | 1020.3 |
| 20260906113234 | 50 | 196 | 2.6 | 4.3 | 0.00 | 0.00 | 0.00 | 94 | 1020.5 |
| 20260906113229 | 50 | 194 | 1.7 | 2.6 | 0.00 | 0.00 | 0.00 | 94 | 1020.5 |
| 20260906113222 | 50 | 167 | 4.3 | 5.2 | 0.00 | 0.00 | 0.00 | 94 | 1020.6 |
| 20260906112358 | 50 | 185 | 3.5 | 4.3 | 0.00 | 0.00 | 0.00 | 94 | 1020.6 |
| 20260906110805 | 50 | 194 | 1.7 | 2.6 | 0.00 | 0.00 | 0.00 | 94 | 1020.5 |
| 20260906110310 | 50 | 300 | 0.0 | 0.0 | 0.00 | 0.00 | 0.00 | 94 | 1020.5 |
| 20260906105803 | 50 | 300 | 0.0 | 0.0 | 0.00 | 0.00 | 0.00 | 94 | 1020.1 |
| 20260906105645 | 50 | 300 | 0.0 | 0.0 | 0.00 | 0.00 | 0.00 | 94 | 1020.1 |
| 20260906105151 | 50 | 300 | 0.0 | 0.0 | 0.00 | 0.00 | 0.00 | 94 | 1020.1 |
| 20260906104303 | 50 | 300 | 0.0 | 0.0 | 0.00 | 0.00 | 0.00 | 94 | 1020.0 |
| 20260906103801 | 50 | 300 | 0.0 | 0.0 | 0.00 | 0.00 | 0.00 | 94 | 1020.0 |
| 20260906103307 | 0 | 0.0 | 0.0 | 0.00 | 0.00 | 0.00 | |||
| 20260906102801 | 50 | 300 | 0.0 | 0.0 | 0.00 | 0.00 | 0.00 | 94 | 1020.1 |
| 20260906102641 | 50 | 300 | 0.0 | 0.0 | 0.00 | 0.00 | 0.00 | 94 | 1020.1 |
| 20260906102135 | 0 | 0.0 | 0.0 | 0.00 | 0.00 | 0.00 | |||
| 20260906101302 | 50 | 300 | 0.0 | 0.0 | 0.00 | 0.00 | 0.00 | 94 | 1020.5 |
| 20260906100801 | 50 | 300 | 0.0 | 0.0 | 0.00 | 0.00 | 0.00 | 94 | 1020.5 |
| 20260906100300 | 50 | 300 | 0.0 | 0.0 | 0.00 | 0.00 | 0.00 | 94 | 1020.8 |
| 20260906095803 | 50 | 300 | 0.0 | 0.0 | 0.00 | 0.00 | 0.00 | 94 | 1020.8 |
| 20260906095305 | 0 | 0.0 | 0.0 | 0.00 | 0.00 | 0.00 | |||
| 20260906094802 | 0 | 0.0 | 0.0 | 0.00 | 0.00 | 0.00 | |||
| 20260906094301 | 0 | 0.0 | 0.0 | 0.00 | 0.00 | 0.00 | |||
| 20260906093800 | 50 | 300 | 0.0 | 0.0 | 0.00 | 0.00 | 0.00 | 94 | 1020.9 |
| 20260906093302 | 50 | 300 | 0.0 | 0.0 | 0.00 | 0.00 | 0.00 | 94 | 1020.9 |
| 20260906092803 | 0 | 0.0 | 0.0 | 0.00 | 0.00 | 0.00 | |||
| 20260906092305 | 0 | 0.0 | 0.0 | 0.00 | 0.00 | 0.00 | |||
| 20260906092148 | 0 | 0.0 | 0.0 | 0.00 | 0.00 | 0.00 | |||
| 20260906091302 | 50 | 300 | 0.0 | 0.0 | 0.00 | 0.00 | 0.00 | 94 | 1021.2 |
| 20260906090803 | 50 | 300 | 0.0 | 0.0 | 0.00 | 0.00 | 0.00 | 94 | 1021.2 |
| 20260906090301 | 0 | 0.0 | 0.0 | 0.00 | 0.00 | 0.00 | |||
| 20260906090150 | 0 | 0.0 | 0.0 | 0.00 | 0.00 | 0.00 | |||
| 20260906085300 | 50 | 300 | 0.0 | 0.0 | 0.00 | 0.00 | 0.00 | 94 | 1021.3 |
| 20260906085157 | 50 | 300 | 0.0 | 0.0 | 0.00 | 0.00 | 0.00 | 94 | 1021.3 |
| 20260906084301 | 50 | 300 | 0.0 | 0.0 | 0.00 | 0.00 | 0.00 | 94 | 1021.4 |
| 20260906083803 | 0 | 0.0 | 0.0 | 0.00 | 0.00 | 0.00 | |||
| 20260906083302 | 0 | 0.0 | 0.0 | 0.00 | 0.00 | 0.00 | |||
| 20260906082802 | 0 | 0.0 | 0.0 | 0.00 | 0.00 | 0.00 | |||
| 20260906082306 | 0 | 0.0 | 0.0 | 0.00 | 0.00 | 0.00 | |||
| 20260906081811 | 0 | 0.0 | 0.0 | 0.00 | 0.00 | 0.00 | |||
| 20260906081313 | 0 | 0.0 | 0.0 | 0.00 | 0.00 | 0.00 | |||
| 20260906080815 | 0 | 0.0 | 0.0 | 0.00 | 0.00 | 0.00 | |||
| 20260906080310 | 0 | 0.0 | 0.0 | 0.00 | 0.00 | 0.00 | |||
| 20260906080136 | 0 | 0.0 | 0.0 | 0.00 | 0.00 | 0.00 | |||
| 20260906075306 | 0 | 0.0 | 0.0 | 0.00 | 0.00 | 0.00 | |||
| 20260906074803 | 0 | 0.0 | 0.0 | 0.00 | 0.00 | 0.00 | |||
| 20260906074632 | 50 | 300 | 0.0 | 0.0 | 0.00 | 0.00 | 0.00 | 94 | 1021.3 |
| 20260906074122 | 50 | 300 | 0.0 | 0.0 | 0.00 | 0.00 | 0.00 | 94 | 1021.3 |
| 20260906073637 | 0 | 0.0 | 0.0 | 0.00 | 0.00 | 0.00 | |||
| 20260906072802 | 50 | 300 | 1.7 | 2.6 | 0.00 | 0.00 | 0.00 | 94 | 1021.6 |
| 20260906072305 | 50 | 300 | 1.7 | 2.6 | 0.00 | 0.00 | 0.00 | 94 | 1021.6 |
| 20260906071801 | 50 | 301 | 1.7 | 2.6 | 0.00 | 0.00 | 0.00 | 94 | 1021.6 |
| 20260906071301 | 50 | 300 | 1.7 | 2.6 | 0.00 | 0.00 | 0.00 | 94 | 1021.6 |
| 20260906070802 | 50 | 301 | 1.7 | 3.5 | 0.00 | 0.00 | 0.00 | 94 | 1021.7 |
| 20260906070306 | 50 | 300 | 1.7 | 3.5 | 0.00 | 0.00 | 0.00 | 94 | 1021.7 |
| 20260906065801 | 50 | 302 | 1.7 | 2.6 | 0.00 | 0.00 | 0.00 | 93 | 1021.6 |
| 20260906065305 | 50 | 315 | 0.9 | 2.6 | 0.00 | 0.00 | 0.00 | 94 | 1021.7 |
| 20260906064805 | 50 | 315 | 0.0 | 0.0 | 0.00 | 0.00 | 0.00 | 94 | 1021.6 |
| 20260906064305 | 50 | 315 | 0.0 | 0.0 | 0.00 | 0.00 | 0.00 | 94 | 1021.7 |
| 20260906063804 | 50 | 315 | 0.0 | 0.0 | 0.00 | 0.00 | 0.00 | 93 | 1021.7 |
| 20260906063302 | 50 | 315 | 0.0 | 0.0 | 0.00 | 0.00 | 0.00 | 93 | 1021.7 |
| 20260906062805 | 50 | 315 | 0.0 | 0.0 | 0.00 | 0.00 | 0.00 | 93 | 1021.8 |
| 20260906062305 | 50 | 315 | 0.0 | 1.7 | 0.00 | 0.00 | 0.00 | 93 | 1021.7 |
| 20260906061801 | 50 | 315 | 0.0 | 1.7 | 0.00 | 0.00 | 0.00 | 93 | 1021.8 |
| 20260906061626 | 50 | 315 | 0.9 | 2.6 | 0.00 | 0.00 | 0.00 | 93 | 1021.8 |
| 20260906060803 | 50 | 315 | 0.0 | 2.6 | 0.00 | 0.00 | 0.00 | 93 | 1021.9 |
| 20260906060302 | 50 | 309 | 0.9 | 0.0 | 0.00 | 0.00 | 0.00 | 93 | 1021.8 |
| 20260906055801 | 50 | 309 | 0.9 | 2.6 | 0.00 | 0.00 | 0.00 | 93 | 1021.8 |
| 20260906055306 | 50 | 309 | 0.0 | 2.6 | 0.00 | 0.00 | 0.00 | 93 | 1021.9 |
| 20260906054802 | 50 | 296 | 1.7 | 1.7 | 0.00 | 0.00 | 0.00 | 93 | 1021.9 |
| 20260906054301 | 50 | 276 | 1.7 | 1.7 | 0.00 | 0.00 | 0.00 | 93 | 1022.0 |
| 20260906053802 | 51 | 276 | 0.9 | 1.7 | 0.00 | 0.00 | 0.00 | 93 | 1022.0 |
| 20260906053302 | 51 | 280 | 1.7 | 0.9 | 0.00 | 0.00 | 0.00 | 93 | 1022.1 |
| 20260906052802 | 51 | 280 | 1.7 | 2.6 | 0.00 | 0.00 | 0.00 | 93 | 1022.0 |
| 20260906052306 | 51 | 296 | 0.9 | 2.6 | 0.00 | 0.00 | 0.00 | 93 | 1022.1 |
| 20260906051801 | 51 | 296 | 1.7 | 1.7 | 0.00 | 0.00 | 0.00 | 93 | 1022.2 |
| 20260906051353 | 51 | 296 | 0.0 | 0.9 | 0.00 | 0.00 | 0.00 | 93 | 1021.9 |
| 20260906051322 | 51 | 296 | 0.0 | 1.7 | 0.00 | 0.00 | 0.00 | 93 | 1022.0 |
| 20260906050948 | 51 | 296 | 0.0 | 0.0 | 0.00 | 0.00 | 0.00 | 93 | 1022.0 |
| 20260906050858 | 51 | 296 | 0.0 | 0.0 | 0.00 | 0.00 | 0.00 | 93 | 1022.0 |
| 20260906045301 | 51 | 296 | 0.9 | 0.9 | 0.00 | 0.00 | 0.00 | 93 | 1022.0 |
| 20260906044801 | 51 | 296 | 1.7 | 1.7 | 0.00 | 0.00 | 0.00 | 93 | 1021.9 |
| 20260906044301 | 51 | 296 | 1.7 | 1.7 | 0.00 | 0.00 | 0.00 | 93 | 1021.9 |
| 20260906043802 | 51 | 296 | 0.9 | 1.7 | 0.00 | 0.00 | 0.00 | 93 | 1021.9 |
| 20260906043301 | 51 | 296 | 0.9 | 1.7 | 0.00 | 0.00 | 0.00 | 93 | 1021.7 |
| 20260906042802 | 51 | 296 | 0.9 | 2.6 | 0.00 | 0.00 | 0.00 | 93 | 1021.7 |
| 20260906042647 | 51 | 297 | 1.7 | 2.6 | 0.00 | 0.00 | 0.00 | 93 | 1021.6 |
| 20260906041801 | 51 | 293 | 0.9 | 2.6 | 0.00 | 0.00 | 0.00 | 93 | 1021.6 |
| 20260906041303 | 51 | 300 | 1.7 | 1.7 | 0.00 | 0.00 | 0.00 | 93 | 1021.6 |
| 20260906040802 | 51 | 335 | 1.7 | 2.6 | 0.00 | 0.00 | 0.00 | 93 | 1021.4 |
| 20260906040301 | 51 | 335 | 1.7 | 2.6 | 0.00 | 0.00 | 0.00 | 93 | 1021.4 |
| 20260906035801 | 51 | 335 | 2.6 | 2.6 | 0.00 | 0.00 | 0.00 | 93 | 1021.4 |
| 20260906035300 | 51 | 335 | 1.7 | 2.6 | 0.00 | 0.00 | 0.00 | 93 | 1021.3 |
| 20260906034805 | 51 | 335 | 1.7 | 2.6 | 0.00 | 0.00 | 0.00 | 93 | 1021.3 |
| 20260906034305 | 51 | 320 | 2.6 | 1.7 | 0.00 | 0.00 | 0.00 | 93 | 1021.3 |
| 20260906033807 | 0 | 0.0 | 0.0 | 0.00 | 0.00 | 0.00 | |||
| 20260906033546 | 51 | 317 | 1.7 | 2.6 | 0.00 | 0.00 | 0.00 | 93 | 1021.3 |
| 20260906033438 | 51 | 317 | 1.7 | 1.7 | 0.00 | 0.00 | 0.00 | 93 | 1021.3 |
| 20260906032309 | 51 | 317 | 1.7 | 3.5 | 0.00 | 0.00 | 0.00 | 92 | 1021.3 |
| 20260906031806 | 51 | 317 | 1.7 | 3.5 | 0.00 | 0.00 | 0.00 | 92 | 1021.4 |
| 20260906031653 | 51 | 337 | 2.6 | 3.5 | 0.00 | 0.00 | 0.00 | 92 | 1021.3 |
| 20260906031148 | 51 | 315 | 2.6 | 2.6 | 0.00 | 0.00 | 0.00 | 92 | 1021.3 |
| 20260906030647 | 51 | 315 | 2.6 | 2.6 | 0.00 | 0.00 | 0.00 | 92 | 1021.3 |
| 20260906030155 | 51 | 318 | 2.6 | 6.1 | 0.00 | 0.00 | 0.00 | 92 | 1021.3 |
| 20260906025307 | 51 | 300 | 3.5 | 6.1 | 0.00 | 0.00 | 0.00 | 92 | 1021.3 |
| 20260906024803 | 51 | 305 | 2.6 | 4.3 | 0.00 | 0.00 | 0.00 | 92 | 1021.3 |
| 20260906024301 | 51 | 279 | 2.6 | 3.5 | 0.00 | 0.00 | 0.00 | 92 | 1021.3 |
| 20260906023800 | 51 | 268 | 2.6 | 3.5 | 0.00 | 0.00 | 0.00 | 92 | 1021.3 |
| 20260906023656 | 51 | 288 | 2.6 | 3.5 | 0.00 | 0.00 | 0.00 | 92 | 1021.3 |
| 20260906022801 | 51 | 288 | 1.7 | 3.5 | 0.00 | 0.00 | 0.00 | 92 | 1021.3 |
| 20260906022302 | 51 | 324 | 1.7 | 2.6 | 0.00 | 0.00 | 0.00 | 92 | 1021.3 |
| 20260906021804 | 51 | 324 | 1.7 | 3.5 | 0.00 | 0.00 | 0.00 | 92 | 1021.3 |
| 20260906021302 | 51 | 324 | 1.7 | 3.5 | 0.00 | 0.00 | 0.00 | 92 | 1021.3 |
| 20260906020802 | 51 | 306 | 1.7 | 3.5 | 0.00 | 0.00 | 0.00 | 92 | 1021.3 |
| 20260906020659 | 51 | 306 | 1.7 | 3.5 | 0.00 | 0.00 | 0.00 | 92 | 1021.4 |
| 20260906015801 | 51 | 301 | 1.7 | 3.5 | 0.00 | 0.00 | 0.00 | 92 | 1021.4 |
| 20260906015305 | 52 | 317 | 1.7 | 2.6 | 0.00 | 0.00 | 0.00 | 91 | 1021.4 |
| 20260906014812 | 52 | 333 | 1.7 | 2.6 | 0.00 | 0.00 | 0.00 | 91 | 1021.4 |
| 20260906014648 | 52 | 351 | 1.7 | 2.6 | 0.00 | 0.00 | 0.00 | 91 | 1021.3 |
| 20260906013806 | 52 | 57 | 0.0 | 0.0 | 0.00 | 0.00 | 0.00 | 91 | 1021.3 |
| 20260906013307 | 52 | 57 | 0.0 | 0.0 | 0.00 | 0.00 | 0.00 | 91 | 1021.2 |
| 20260906012801 | 52 | 57 | 0.0 | 0.0 | 0.00 | 0.00 | 0.00 | 91 | 1021.2 |
| 20260906012305 | 52 | 57 | 0.0 | 1.7 | 0.00 | 0.00 | 0.00 | 91 | 1021.1 |
| 20260906012143 | 52 | 42 | 0.0 | 3.5 | 0.00 | 0.00 | 0.00 | 91 | 1021.1 |
| 20260906012138 | 52 | 57 | 0.0 | 2.6 | 0.00 | 0.00 | 0.00 | 91 | 1021.2 |
| 20260906011958 | 52 | 57 | 0.0 | 1.7 | 0.00 | 0.00 | 0.00 | 91 | 1021.2 |
| 20260906011727 | 52 | 57 | 1.7 | 3.5 | 0.00 | 0.00 | 0.00 | 91 | 1021.1 |
| 20260906010434 | 52 | 54 | 0.9 | 3.5 | 0.00 | 0.00 | 0.00 | 91 | 1021.1 |
| 20260906005306 | 52 | 55 | 0.9 | 3.5 | 0.00 | 0.00 | 0.00 | 90 | 1021.1 |
| 20260906004801 | 52 | 74 | 0.0 | 0.0 | 0.00 | 0.00 | 0.00 | 90 | 1021.1 |
| 20260906004301 | 52 | 74 | 0.0 | 3.5 | 0.00 | 0.00 | 0.00 | 90 | 1021.0 |
| 20260906003803 | 52 | 74 | 0.0 | 3.5 | 0.00 | 0.00 | 0.00 | 90 | 1021.0 |
| 20260906003309 | 52 | 69 | 1.7 | 3.5 | 0.00 | 0.00 | 0.00 | 90 | 1021.0 |
| 20260906002801 | 52 | 51 | 1.7 | 4.3 | 0.00 | 0.00 | 0.00 | 90 | 1021.1 |
| 20260906002305 | 52 | 86 | 2.6 | 4.3 | 0.00 | 0.00 | 0.00 | 89 | 1021.1 |
| 20260906001801 | 52 | 76 | 1.7 | 4.3 | 0.00 | 0.00 | 0.00 | 89 | 1021.0 |
| 20260906001302 | 52 | 34 | 2.6 | 4.3 | 0.00 | 0.00 | 0.00 | 89 | 1021.0 |
| 20260906000801 | 52 | 352 | 1.7 | 3.5 | 0.00 | 0.00 | 0.00 | 88 | 1021.0 |
| 20260906000559 | 52 | 346 | 4.3 | 7.8 | 0.00 | 0.00 | 0.00 | 88 | 1021.0 |
| 20260906000434 | 52 | 42 | 2.6 | 7.8 | 0.00 | 0.00 | 0.00 | 88 | 1021.0 |
| 20260905235306 | 52 | 352 | 4.3 | 7.0 | 0.00 | 0.00 | 0.00 | 88 | 1021.0 |
| 20260905234802 | 52 | 28 | 3.5 | 7.8 | 0.00 | 0.00 | 0.00 | 88 | 1021.0 |
| 20260905234301 | 52 | 349 | 6.1 | 7.8 | 0.00 | 0.00 | 0.00 | 88 | 1020.9 |
| 20260905233802 | 52 | 26 | 6.1 | 7.8 | 0.00 | 0.00 | 0.00 | 88 | 1020.9 |
| 20260905233302 | 52 | 5 | 6.1 | 7.8 | 0.00 | 0.00 | 0.00 | 88 | 1020.9 |
| 20260905233158 | 52 | 348 | 3.5 | 6.1 | 0.00 | 0.00 | 0.00 | 88 | 1021.0 |